N145NG VA88-VA88

Flight info

Callsign N145NG
Flight time 2h 11m
Altitude 1200
Route VFR
Aircraft EC45/L-G/C

Departure

Time 2026-05-06 16:16
Airport Sentara Norfolk General Hospital Heliport (VA88)

Arrival

Time 2026-05-06 18:27
Airport Sentara Norfolk General Hospital Heliport (VA88)
Time Latitude Longitude Altitude Speed Heading
2026-05-06 16:14 36.86171 -76.30482 17 ft 0 kts
2026-05-06 16:15 36.86185 -76.30469 111 ft 7 kts
2026-05-06 16:16 36.86327 -76.30406 209 ft 42 kts 360°
2026-05-06 16:16 36.86737 -76.30309 357 ft 75 kts
2026-05-06 16:16 36.87335 -76.30154 541 ft 99 kts
2026-05-06 16:16 36.88069 -76.29981 643 ft 114 kts
2026-05-06 16:17 36.88884 -76.29704 633 ft 129 kts 20°
2026-05-06 16:17 36.89669 -76.29082 627 ft 138 kts 38°
2026-05-06 16:17 36.90312 -76.28151 627 ft 145 kts 55°
2026-05-06 16:17 36.90738 -76.26993 627 ft 149 kts 71°
2026-05-06 16:18 36.90905 -76.25719 638 ft 146 kts 87°
2026-05-06 16:18 36.90814 -76.24513 639 ft 134 kts 103°
2026-05-06 16:18 36.90507 -76.23495 638 ft 122 kts 119°
2026-05-06 16:18 36.90126 -76.22595 636 ft 113 kts 120°
2026-05-06 16:19 36.89760 -76.21748 634 ft 109 kts 120°
2026-05-06 16:19 36.89396 -76.20932 632 ft 106 kts 121°
2026-05-06 16:19 36.89031 -76.20140 632 ft 104 kts 121°
2026-05-06 16:19 36.88663 -76.19362 634 ft 103 kts 122°
2026-05-06 16:20 36.88290 -76.18598 629 ft 103 kts 123°
2026-05-06 16:20 36.87909 -76.17845 630 ft 103 kts 123°
2026-05-06 16:20 36.87521 -76.17098 629 ft 102 kts 124°
2026-05-06 16:20 36.87126 -76.16362 633 ft 102 kts 125°
2026-05-06 16:21 36.86724 -76.15634 636 ft 102 kts 126°
2026-05-06 16:21 36.86313 -76.14913 633 ft 102 kts 127°
2026-05-06 16:21 36.85891 -76.14201 633 ft 102 kts 128°
2026-05-06 16:21 36.85459 -76.13499 634 ft 102 kts 129°
2026-05-06 16:22 36.85021 -76.12808 632 ft 102 kts 130°
2026-05-06 16:22 36.84576 -76.12124 628 ft 101 kts 131°
2026-05-06 16:22 36.84124 -76.11451 630 ft 101 kts 131°
2026-05-06 16:22 36.83663 -76.10784 629 ft 101 kts 132°
2026-05-06 16:23 36.83202 -76.10135 630 ft 101 kts 133°
2026-05-06 16:23 36.82728 -76.09486 629 ft 101 kts 134°
2026-05-06 16:23 36.82244 -76.08847 632 ft 101 kts 135°
2026-05-06 16:23 36.81749 -76.08216 627 ft 102 kts 136°
2026-05-06 16:24 36.81414 -76.07803 628 ft 102 kts 137°
2026-05-06 16:24 36.80903 -76.07191 629 ft 102 kts 138°
2026-05-06 16:24 36.80385 -76.06590 632 ft 102 kts 139°
2026-05-06 16:24 36.79859 -76.06002 629 ft 102 kts 140°
2026-05-06 16:25 36.79324 -76.05427 630 ft 101 kts 141°
2026-05-06 16:25 36.78782 -76.04864 630 ft 101 kts 142°
2026-05-06 16:25 36.78236 -76.04312 629 ft 101 kts 143°
2026-05-06 16:25 36.77684 -76.03775 630 ft 100 kts 144°
2026-05-06 16:26 36.77127 -76.03249 629 ft 100 kts 145°
2026-05-06 16:26 36.76562 -76.02737 630 ft 101 kts 146°
2026-05-06 16:26 36.75986 -76.02235 629 ft 101 kts 147°
2026-05-06 16:26 36.75404 -76.01747 629 ft 101 kts 148°
2026-05-06 16:27 36.74817 -76.01272 630 ft 100 kts 149°
2026-05-06 16:27 36.74226 -76.00811 630 ft 100 kts 150°
2026-05-06 16:27 36.73628 -76.00360 632 ft 100 kts 151°
2026-05-06 16:27 36.73026 -75.99922 629 ft 100 kts 152°
2026-05-06 16:28 36.72419 -75.99495 627 ft 100 kts 153°
2026-05-06 16:28 36.71804 -75.99083 628 ft 100 kts 154°
2026-05-06 16:28 36.71182 -75.98686 628 ft 101 kts 155°
2026-05-06 16:28 36.70554 -75.98303 633 ft 100 kts 156°
2026-05-06 16:29 36.69921 -75.97934 633 ft 100 kts 157°
2026-05-06 16:29 36.69285 -75.97579 629 ft 100 kts 158°
2026-05-06 16:29 36.68648 -75.97239 629 ft 100 kts 159°
2026-05-06 16:29 36.68007 -75.96911 627 ft 99 kts 160°
2026-05-06 16:30 36.67364 -75.96597 631 ft 99 kts 161°
2026-05-06 16:30 36.66936 -75.96398 631 ft 99 kts 161°
2026-05-06 16:30 36.66068 -75.96009 630 ft 99 kts 161°
2026-05-06 16:30 36.65468 -75.95578 628 ft 100 kts 143°
2026-05-06 16:31 36.64951 -75.94994 628 ft 100 kts 138°
2026-05-06 16:31 36.64451 -75.94385 632 ft 101 kts 136°
2026-05-06 16:31 36.63963 -75.93756 630 ft 101 kts 134°
2026-05-06 16:31 36.63491 -75.93105 629 ft 101 kts 133°
2026-05-06 16:32 36.63037 -75.92437 631 ft 101 kts 131°
2026-05-06 16:32 36.62602 -75.91762 627 ft 102 kts 129°
2026-05-06 16:32 36.62175 -75.91060 631 ft 102 kts 127°
2026-05-06 16:32 36.61757 -75.90346 631 ft 102 kts 129°
2026-05-06 16:33 36.61269 -75.89708 629 ft 102 kts 140°
2026-05-06 16:33 36.60698 -75.89200 628 ft 101 kts 151°
2026-05-06 16:33 36.60062 -75.88838 633 ft 100 kts 162°
2026-05-06 16:34 36.58725 -75.88367 629 ft 99 kts 170°
2026-05-06 16:34 36.58051 -75.88167 630 ft 99 kts 165°
2026-05-06 16:34 36.57376 -75.87900 629 ft 105 kts 164°
2026-05-06 16:34 36.56664 -75.87621 625 ft 110 kts 164°
2026-05-06 16:35 36.55925 -75.87334 628 ft 113 kts 164°
2026-05-06 16:35 36.55163 -75.87059 629 ft 115 kts 167°
2026-05-06 16:35 36.54389 -75.86840 631 ft 115 kts 170°
2026-05-06 16:35 36.53676 -75.86657 636 ft 92 kts 172°
2026-05-06 16:36 36.53138 -75.86430 480 ft 73 kts 162°
2026-05-06 16:36 36.52701 -75.86247 395 ft 62 kts 172°
2026-05-06 16:36 36.52295 -75.86172 384 ft 57 kts 179°
2026-05-06 16:36 36.51902 -75.86184 376 ft 56 kts 190°
2026-05-06 16:37 36.51551 -75.86337 297 ft 48 kts 211°
2026-05-06 16:37 36.51339 -75.86510 191 ft 26 kts 223°
2026-05-06 16:37 36.51272 -75.86628 131 ft 12 kts 295°
2026-05-06 16:37 36.51368 -75.86729 132 ft 25 kts 348°
2026-05-06 16:38 36.51553 -75.86681 119 ft 24 kts 20°
2026-05-06 16:38 36.51642 -75.86585 28 ft 9 kts 47°
2026-05-06 16:38 36.51656 -75.86535 18 ft 0 kts 40°
2026-05-06 18:08 36.51659 -75.86522 190 ft 4 kts 26°
2026-05-06 18:08 36.51732 -75.86440 304 ft 29 kts 22°
2026-05-06 18:08 36.51986 -75.86277 445 ft 49 kts 24°
2026-05-06 18:08 36.52348 -75.86097 635 ft 66 kts
2026-05-06 18:09 36.52842 -75.86126 736 ft 76 kts 342°
2026-05-06 18:09 36.53329 -75.86425 822 ft 81 kts 320°
2026-05-06 18:09 36.53754 -75.86950 809 ft 92 kts 306°
2026-05-06 18:09 36.54084 -75.87684 802 ft 102 kts 290°
2026-05-06 18:10 36.54280 -75.88562 799 ft 109 kts 283°
2026-05-06 18:10 36.54487 -75.89485 799 ft 113 kts 285°
2026-05-06 18:10 36.54730 -75.90429 799 ft 116 kts 288°
2026-05-06 18:10 36.54993 -75.91381 799 ft 117 kts 288°
2026-05-06 18:11 36.55270 -75.92336 799 ft 118 kts 289°
2026-05-06 18:11 36.55557 -75.93291 800 ft 118 kts 290°
2026-05-06 18:11 36.55848 -75.94228 800 ft 118 kts 291°
2026-05-06 18:11 36.56152 -75.95174 800 ft 118 kts 291°
2026-05-06 18:12 36.56466 -75.96118 799 ft 118 kts 292°
2026-05-06 18:12 36.56882 -75.97004 799 ft 120 kts 307°
2026-05-06 18:12 36.57495 -75.97710 802 ft 120 kts 319°
2026-05-06 18:12 36.58140 -75.98348 801 ft 117 kts 321°
2026-05-06 18:13 36.58800 -75.98933 801 ft 116 kts 324°
2026-05-06 18:13 36.59482 -75.99472 801 ft 116 kts 327°
2026-05-06 18:13 36.60178 -75.99961 800 ft 115 kts 330°
2026-05-06 18:13 36.60895 -76.00404 801 ft 115 kts 333°
2026-05-06 18:14 36.61627 -76.00799 800 ft 115 kts 336°
2026-05-06 18:14 36.62375 -76.01148 801 ft 115 kts 339°
2026-05-06 18:14 36.63134 -76.01449 801 ft 114 kts 342°
2026-05-06 18:14 36.63902 -76.01702 800 ft 114 kts 345°
2026-05-06 18:15 36.64681 -76.01908 799 ft 115 kts 347°
2026-05-06 18:15 36.65469 -76.02066 800 ft 115 kts 349°
2026-05-06 18:15 36.66240 -76.02318 800 ft 114 kts 339°
2026-05-06 18:15 36.66981 -76.02674 800 ft 114 kts 337°
2026-05-06 18:16 36.67726 -76.03024 801 ft 114 kts 338°
2026-05-06 18:16 36.68469 -76.03375 800 ft 114 kts 335°
2026-05-06 18:16 36.69170 -76.03827 799 ft 114 kts 327°
2026-05-06 18:16 36.69848 -76.04334 800 ft 114 kts 328°
2026-05-06 18:17 36.70540 -76.04818 803 ft 114 kts 330°
2026-05-06 18:17 36.71230 -76.05273 801 ft 113 kts 331°
2026-05-06 18:17 36.71933 -76.05709 801 ft 113 kts 333°
2026-05-06 18:17 36.72645 -76.06121 800 ft 113 kts 334°
2026-05-06 18:18 36.73366 -76.06511 799 ft 113 kts 335°
2026-05-06 18:18 36.74094 -76.06875 799 ft 113 kts 337°
2026-05-06 18:18 36.74833 -76.07211 800 ft 113 kts 339°
2026-05-06 18:18 36.75541 -76.07644 798 ft 114 kts 324°
2026-05-06 18:19 36.76158 -76.08274 799 ft 115 kts 315°
2026-05-06 18:19 36.76734 -76.08967 799 ft 115 kts 315°
2026-05-06 18:19 36.77319 -76.09656 800 ft 116 kts 315°
2026-05-06 18:19 36.77904 -76.10330 800 ft 116 kts 316°
2026-05-06 18:20 36.78504 -76.11005 800 ft 116 kts 317°
2026-05-06 18:20 36.79110 -76.11673 800 ft 116 kts 317°
2026-05-06 18:20 36.79722 -76.12333 799 ft 116 kts 318°
2026-05-06 18:20 36.80342 -76.12987 800 ft 117 kts 319°
2026-05-06 18:21 36.80969 -76.13633 800 ft 117 kts 319°
2026-05-06 18:21 36.81602 -76.14269 800 ft 117 kts 320°
2026-05-06 18:21 36.82239 -76.14897 799 ft 117 kts 321°
2026-05-06 18:21 36.82883 -76.15515 800 ft 117 kts 321°
2026-05-06 18:22 36.83535 -76.16124 799 ft 117 kts 322°
2026-05-06 18:22 36.84196 -76.16724 800 ft 117 kts 323°
2026-05-06 18:22 36.84864 -76.17315 800 ft 117 kts 323°
2026-05-06 18:22 36.85536 -76.17894 801 ft 117 kts 324°
2026-05-06 18:23 36.86214 -76.18463 800 ft 117 kts 325°
2026-05-06 18:23 36.86894 -76.19018 801 ft 117 kts 326°
2026-05-06 18:23 36.87571 -76.19558 802 ft 117 kts 326°
2026-05-06 18:23 36.88260 -76.20096 800 ft 117 kts 327°
2026-05-06 18:24 36.88901 -76.20708 799 ft 116 kts 311°
2026-05-06 18:24 36.89261 -76.21603 799 ft 117 kts 284°
2026-05-06 18:24 36.89246 -76.22611 801 ft 117 kts 257°
2026-05-06 18:24 36.88914 -76.23471 809 ft 103 kts 241°
2026-05-06 18:25 36.88559 -76.24189 805 ft 92 kts 239°
2026-05-06 18:25 36.88211 -76.24830 802 ft 86 kts 237°
2026-05-06 18:25 36.87862 -76.25418 802 ft 83 kts 234°
2026-05-06 18:25 36.87509 -76.25963 801 ft 81 kts 231°
2026-05-06 18:26 36.87146 -76.26491 802 ft 79 kts 231°
2026-05-06 18:26 36.86814 -76.26978 773 ft 68 kts 232°
2026-05-06 18:26 36.86530 -76.27383 663 ft 59 kts 231°
2026-05-06 18:26 36.86272 -76.27756 601 ft 57 kts 234°
2026-05-06 18:27 36.86051 -76.28193 501 ft 64 kts 244°
2026-05-06 18:27 36.85900 -76.28737 376 ft 69 kts 259°
2026-05-06 18:27 36.85887 -76.29274 310 ft 52 kts 278°
2026-05-06 18:27 36.85942 -76.29635 240 ft 33 kts 288°
2026-05-06 18:28 36.86003 -76.29855 225 ft 21 kts 291°
2026-05-06 18:28 36.86052 -76.30024 188 ft 22 kts 292°
2026-05-06 18:28 36.86118 -76.30206 155 ft 21 kts 292°
2026-05-06 18:28 36.86146 -76.30285 135 ft 5 kts 295°
2026-05-06 18:29 36.86162 -76.30323 119 ft 5 kts 296°
2026-05-06 18:29 36.86170 -76.30341 106 ft 0 kts 295°
2026-05-06 20:12 36.86174 -76.30346 124 ft 3 kts 306°
2026-05-06 20:12 36.86196 -76.30361 238 ft 4 kts 306°
2026-05-06 20:12 36.86242 -76.30362 393 ft 11 kts 305°
2026-05-06 20:12 36.86386 -76.30462 362 ft 41 kts 309°
2026-05-06 20:13 36.86696 -76.30723 348 ft 65 kts 320°
2026-05-06 20:13 36.87077 -76.31103 336 ft 75 kts 315°
2026-05-06 20:13 36.87388 -76.31641 331 ft 80 kts 289°
2026-05-06 20:13 36.87589 -76.32297 331 ft 81 kts 289°
2026-05-06 20:14 36.87775 -76.32962 330 ft 81 kts 288°
2026-05-06 20:14 36.87926 -76.33641 328 ft 81 kts 281°
2026-05-06 20:14 36.88052 -76.34320 405 ft 82 kts 284°
2026-05-06 20:14 36.88219 -76.35020 517 ft 84 kts 288°
2026-05-06 20:15 36.88416 -76.35697 640 ft 85 kts 290°
2026-05-06 20:15 36.88644 -76.36377 762 ft 85 kts 290°
2026-05-06 20:15 36.88849 -76.37101 775 ft 93 kts 288°
2026-05-06 20:15 36.89075 -76.37909 770 ft 103 kts 288°
2026-05-06 20:16 36.89320 -76.38777 769 ft 109 kts 288°
2026-05-06 20:16 36.89575 -76.39681 768 ft 112 kts 288°
2026-05-06 20:16 36.89835 -76.40608 768 ft 114 kts 289°
2026-05-06 20:16 36.90099 -76.41547 767 ft 115 kts 289°
2026-05-06 20:17 36.90367 -76.42494 768 ft 116 kts 289°
2026-05-06 20:17 36.90638 -76.43448 768 ft 116 kts 289°
2026-05-06 20:17 36.90910 -76.44404 768 ft 117 kts 289°
2026-05-06 20:17 36.91180 -76.45348 768 ft 117 kts 289°
2026-05-06 20:18 36.91455 -76.46305 769 ft 117 kts 289°
2026-05-06 20:18 36.91729 -76.47261 768 ft 117 kts 289°
2026-05-06 20:18 36.92003 -76.48216 767 ft 117 kts 289°
2026-05-06 20:18 36.92279 -76.49171 768 ft 117 kts 289°
2026-05-06 20:19 36.92558 -76.50125 768 ft 117 kts 289°
2026-05-06 20:19 36.92837 -76.51082 769 ft 117 kts 289°
2026-05-06 20:19 36.93115 -76.52035 770 ft 116 kts 289°
2026-05-06 20:19 36.93386 -76.52986 769 ft 116 kts 289°
2026-05-06 20:20 36.93563 -76.53613 768 ft 116 kts 289°
2026-05-06 20:20 36.93831 -76.54566 768 ft 116 kts 289°
2026-05-06 20:20 36.94098 -76.55519 768 ft 116 kts 289°
2026-05-06 20:20 36.94362 -76.56470 768 ft 116 kts 289°
2026-05-06 20:21 36.94626 -76.57423 768 ft 116 kts 288°
2026-05-06 20:21 36.94889 -76.58379 768 ft 116 kts 288°
2026-05-06 20:21 36.95150 -76.59334 770 ft 116 kts 288°
2026-05-06 20:21 36.95404 -76.60278 770 ft 116 kts 288°
2026-05-06 20:22 36.95655 -76.61229 768 ft 115 kts 288°
2026-05-06 20:22 36.95906 -76.62184 768 ft 116 kts 288°
2026-05-06 20:22 36.96156 -76.63141 769 ft 116 kts 287°
2026-05-06 20:22 36.96403 -76.64098 770 ft 115 kts 287°
2026-05-06 20:23 36.96641 -76.65053 769 ft 115 kts 287°
2026-05-06 20:23 36.96873 -76.66003 768 ft 114 kts 286°
2026-05-06 20:23 36.97100 -76.66956 769 ft 114 kts 286°
2026-05-06 20:23 36.97322 -76.67913 766 ft 114 kts 285°
2026-05-06 20:24 36.97543 -76.68870 767 ft 115 kts 286°
2026-05-06 20:24 36.97764 -76.69832 770 ft 115 kts 285°
2026-05-06 20:24 36.97948 -76.70698 781 ft 93 kts 284°
2026-05-06 20:24 36.98071 -76.71408 775 ft 76 kts 282°
2026-05-06 20:25 36.98151 -76.72014 772 ft 66 kts 279°
2026-05-06 20:25 36.98196 -76.72558 655 ft 60 kts 275°
2026-05-06 20:25 36.98208 -76.73054 422 ft 54 kts 271°
2026-05-06 20:25 36.98199 -76.73497 332 ft 45 kts 271°
2026-05-06 20:26 36.98209 -76.73780 217 ft 20 kts 286°
2026-05-06 20:26 36.98248 -76.73854 126 ft 5 kts 292°
2026-05-06 20:26 36.98269 -76.73860 89 ft 0 kts 289°
2026-05-06 20:34 36.98269 -76.73859 89 ft 0 kts 296°
2026-05-06 20:34 36.98262 -76.73866 200 ft 0 kts 291°
2026-05-06 20:35 36.98297 -76.73880 272 ft 12 kts 291°
2026-05-06 20:35 36.98439 -76.74031 249 ft 50 kts 315°
2026-05-06 20:35 36.98913 -76.74044 242 ft 81 kts 11°
2026-05-06 20:35 36.99320 -76.73530 439 ft 89 kts 62°
2026-05-06 20:36 36.99345 -76.72764 585 ft 91 kts 106°
2026-05-06 20:36 36.98958 -76.72165 743 ft 90 kts 149°
2026-05-06 20:36 36.98407 -76.71750 788 ft 94 kts 152°
2026-05-06 20:36 36.97840 -76.71339 774 ft 99 kts 147°
2026-05-06 20:37 36.97288 -76.70745 769 ft 110 kts 138°
2026-05-06 20:37 36.96787 -76.69981 766 ft 117 kts 124°
2026-05-06 20:37 36.96331 -76.69109 769 ft 122 kts 123°
2026-05-06 20:37 36.95881 -76.68203 769 ft 123 kts 122°
2026-05-06 20:38 36.95444 -76.67275 767 ft 124 kts 121°
2026-05-06 20:38 36.94990 -76.66348 767 ft 125 kts 124°
2026-05-06 20:38 36.94490 -76.65451 768 ft 126 kts 127°
2026-05-06 20:38 36.93948 -76.64591 769 ft 126 kts 130°
2026-05-06 20:39 36.93369 -76.63772 768 ft 126 kts 134°
2026-05-06 20:39 36.92752 -76.62997 768 ft 126 kts 138°
2026-05-06 20:39 36.92099 -76.62269 768 ft 126 kts 141°
2026-05-06 20:39 36.91422 -76.61598 770 ft 126 kts 144°
2026-05-06 20:40 36.90709 -76.60967 768 ft 125 kts 148°
2026-05-06 20:40 36.89973 -76.60391 769 ft 125 kts 151°
2026-05-06 20:40 36.89305 -76.59701 769 ft 126 kts 134°
2026-05-06 20:40 36.88817 -76.58794 770 ft 126 kts 120°
2026-05-06 20:41 36.88442 -76.57811 769 ft 125 kts 114°
2026-05-06 20:41 36.88166 -76.56778 769 ft 125 kts 109°
2026-05-06 20:41 36.87891 -76.55749 767 ft 125 kts 109°
2026-05-06 20:41 36.87602 -76.54725 768 ft 125 kts 110°
2026-05-06 20:42 36.87331 -76.53694 768 ft 125 kts 107°
2026-05-06 20:42 36.87119 -76.52634 768 ft 126 kts 103°
2026-05-06 20:42 36.86928 -76.51570 785 ft 120 kts 103°
2026-05-06 20:42 36.86788 -76.50677 782 ft 91 kts 100°
2026-05-06 20:43 36.86737 -76.49983 744 ft 71 kts 96°
2026-05-06 20:43 36.86706 -76.49398 624 ft 68 kts 96°
2026-05-06 20:43 36.86645 -76.48787 507 ft 73 kts 99°
2026-05-06 20:43 36.86620 -76.48144 540 ft 77 kts 91°
2026-05-06 20:44 36.86597 -76.47473 553 ft 78 kts 92°
2026-05-06 20:44 36.86607 -76.46799 589 ft 78 kts 86°
2026-05-06 20:44 36.86663 -76.46126 563 ft 78 kts 81°
2026-05-06 20:44 36.86758 -76.45508 545 ft 66 kts 77°
2026-05-06 20:45 36.86858 -76.44977 514 ft 60 kts 76°
2026-05-06 20:45 36.86958 -76.44560 334 ft 40 kts 64°
2026-05-06 20:45 36.87049 -76.44321 165 ft 23 kts 66°
2026-05-06 20:45 36.87049 -76.44175 68 ft 11 kts 70°
2026-05-06 20:46 36.87047 -76.44099 66 ft 8 kts 121°
2026-05-06 20:46 36.87003 -76.44105 66 ft 8 kts 191°
2026-05-06 20:46 36.86977 -76.44163 67 ft 9 kts 190°
2026-05-06 20:46 36.86911 -76.44210 70 ft 8 kts 187°
2026-05-06 20:47 36.86860 -76.44227 70 ft 8 kts 184°
2026-05-06 20:47 36.86820 -76.44214 67 ft 4 kts 73°
2026-05-06 20:47 36.86820 -76.44186 68 ft 2 kts 35°
2026-05-06 20:47 36.86829 -76.44178 64 ft 1 kts 34°
2026-05-06 20:48 36.86837 -76.44190 69 ft 2 kts 33°
2026-05-06 20:48 36.86836 -76.44189 68 ft 0 kts 33°
2026-05-06 20:48 36.86836 -76.44188 68 ft 0 kts 33°
2026-05-06 20:49 36.86837 -76.44185 68 ft 0 kts 287°
2026-05-06 20:49 36.86836 -76.44188 68 ft 0 kts 263°